Tracking 29493 objects as of 8-Sep-2024
HD Live streaming from Space Station
objects crossing your sky now

OBJECT D

Track OBJECT D now!
10-day predictions


NORAD ID: 44882
Int'l Code: 2019-093D
Perigee: 589.8 km
Apogee: 608.6 km
Inclination: 97.8 °
Period: 96.5 minutes
Semi major axis: 6970 km
RCS: Unknown
Launch date: December 20, 2019
Source: (TBD)
Launch site: Taiyaun Space Center, China (TSC)

Note: This is a ROCKET BODY
Your satellite tracking list
Your tracking list is empty




NASA's NSSDC Master Catalog

Two Line Element Set (TLE):
1 44882U 19093D   24252.21497426  .00017656  00000-0  17459-2 0  9991
2 44882  97.8403 333.9398 0013487  39.6282 320.5920 14.91887679255665
Source of the keplerian elements: AFSPC